Time,TemperatureF,DewpointF,PressureIn,WindDirection,WindDirectionDegrees,WindSpeedMPH,WindSpeedGustMPH,Humidity,HourlyPrecipIn,Conditions,Clouds,dailyrainin,SoftwareType,DateUTC
2013-02-11 00:00:00,28.4,10.2,30.27,SSE,153,0.4,5.8,46,0.00,SCT,,0.12,WeatherDisplay:10.37,2013-02-11 05:00:00,
2013-02-11 00:01:00,28.4,9.7,30.27,SSE,168,0.2,3.5,45,0.00,RA,,0.00,WeatherDisplay:10.37,2013-02-11 05:01:00,
2013-02-11 00:06:00,28.6,10.4,30.26,SE,142,1.1,6.9,46,0.00,RA,,0.00,WeatherDisplay:10.37,2013-02-11 05:06:00,
2013-02-11 00:12:00,28.7,11.0,30.26,SE,126,1.2,4.6,47,0.00,BKN,,0.00,WeatherDisplay:10.37,2013-02-11 05:12:00,
2013-02-11 00:17:00,28.7,10.5,30.26,ESE,110,0.9,3.0,46,0.00,BKN,,0.00,WeatherDisplay:10.37,2013-02-11 05:17:00,
2013-02-11 00:22:00,28.7,10.0,30.25,ESE,123,2.6,11.5,45,0.00,BKN,,0.00,WeatherDisplay:10.37,2013-02-11 05:22:00,
2013-02-11 00:27:00,28.8,10.1,30.25,SE,131,1.9,3.5,45,0.00,BKN,,0.00,WeatherDisplay:10.37,2013-02-11 05:27:00,
2013-02-11 00:32:00,29.0,9.8,30.24,SE,140,0.6,3.5,44,0.00,BKN,,0.00,WeatherDisplay:10.37,2013-02-11 05:32:00,
2013-02-11 00:37:00,29.2,10.5,30.24,ESE,115,2.8,9.2,45,0.00,BKN,,0.00,WeatherDisplay:10.37,2013-02-11 05:37:00,
2013-02-11 00:43:00,29.3,11.1,30.24,ESE,105,4.6,12.7,46,0.00,BKN,,0.00,WeatherDisplay:10.37,2013-02-11 05:43:00,
2013-02-11 00:48:00,29.4,10.1,30.23,SSE,158,1.6,9.2,44,0.00,BKN,,0.00,WeatherDisplay:10.37,2013-02-11 05:48:00,
2013-02-11 00:53:00,29.6,10.3,30.23,SSE,157,2.3,4.6,44,0.00,BKN,,0.00,WeatherDisplay:10.37,2013-02-11 05:53:00,
2013-02-11 00:58:00,29.7,10.4,30.23,SE,129,4.6,10.4,44,0.00,BKN,,0.00,WeatherDisplay:10.37,2013-02-11 05:58:00,
2013-02-11 01:03:00,29.9,10.1,30.23,ESE,123,2.9,5.8,43,0.00,OVC,,0.00,WeatherDisplay:10.37,2013-02-11 06:03:00,
2013-02-11 01:08:00,30.0,10.2,30.22,SE,141,2.5,7.0,43,0.00,OVC,,0.00,WeatherDisplay:10.37,2013-02-11 06:08:00,
2013-02-11 01:14:00,30.1,10.3,30.22,ESE,111,2.3,5.8,43,0.00,OVC,,0.00,WeatherDisplay:10.37,2013-02-11 06:14:00,
2013-02-11 01:19:00,30.2,10.9,30.22,SSE,155,4.1,10.0,44,0.00,OVC,,0.00,WeatherDisplay:10.37,2013-02-11 06:19:00,
2013-02-11 01:24:00,30.2,11.4,30.22,SE,146,1.3,11.5,45,0.00,OVC,,0.00,WeatherDisplay:10.37,2013-02-11 06:24:00,
2013-02-11 01:29:00,30.1,10.8,30.22,SE,138,1.2,6.0,44,0.00,OVC,,0.00,WeatherDisplay:10.37,2013-02-11 06:29:00,
2013-02-11 01:35:00,30.2,11.9,30.22,SSE,157,3.8,6.9,46,0.00,OVC,,0.00,WeatherDisplay:10.37,2013-02-11 06:35:00,
2013-02-11 01:40:00,30.1,10.8,30.22,SE,128,1.6,5.0,44,0.00,OVC,,0.00,WeatherDisplay:10.37,2013-02-11 06:40:00,
2013-02-11 01:45:00,30.1,11.8,30.20,SE,144,4.3,13.8,46,0.00,OVC,,0.00,WeatherDisplay:10.37,2013-02-11 06:45:00,
2013-02-11 01:50:00,30.2,12.8,30.20,SSE,147,3.8,11.5,48,0.00,OVC,,0.00,WeatherDisplay:10.37,2013-02-11 06:50:00,
2013-02-11 01:55:00,30.3,12.5,30.20,East,93,4.2,11.5,47,0.00,OVC,,0.00,WeatherDisplay:10.37,2013-02-11 06:55:00,
2013-02-11 02:00:00,30.5,12.6,30.20,SE,130,6.2,13.8,47,0.00,OVC,,0.00,WeatherDisplay:10.37,2013-02-11 07:00:00,
2013-02-11 02:05:00,30.5,12.2,30.20,SE,129,3.1,4.6,46,0.00,OVC,,0.00,WeatherDisplay:10.37,2013-02-11 07:05:00,
2013-02-11 02:10:00,30.6,13.2,30.20,SE,138,5.3,10.4,48,0.00,OVC,,0.00,WeatherDisplay:10.37,2013-02-11 07:10:00,
2013-02-11 02:15:00,30.7,13.3,30.20,SE,146,3.9,11.5,48,0.00,OVC,,0.00,WeatherDisplay:10.37,2013-02-11 07:15:00,
2013-02-11 02:21:00,30.8,12.9,30.20,SE,130,5.4,12.7,47,0.00,OVC,,0.00,WeatherDisplay:10.37,2013-02-11 07:21:00,
2013-02-11 02:26:00,30.8,13.9,30.20,SE,142,2.2,9.2,49,0.00,OVC,,0.00,WeatherDisplay:10.37,2013-02-11 07:26:00,
2013-02-11 02:31:00,30.8,13.4,30.19,SE,125,4.0,4.6,48,0.00,OVC,,0.00,WeatherDisplay:10.37,2013-02-11 07:31:00,
2013-02-11 02:36:00,30.9,14.4,30.19,ESE,116,3.4,4.6,50,0.00,OVC,,0.00,WeatherDisplay:10.37,2013-02-11 07:36:00,
2013-02-11 02:41:00,30.9,14.0,30.19,ESE,109,3.7,8.1,49,0.00,OVC,,0.00,WeatherDisplay:10.37,2013-02-11 07:41:00,
2013-02-11 02:46:00,30.9,14.0,30.19,East,101,2.4,3.5,49,0.00,OVC,,0.00,WeatherDisplay:10.37,2013-02-11 07:46:00,
2013-02-11 02:52:00,30.9,14.0,30.19,SSE,150,2.8,9.2,49,0.00,OVC,,0.00,WeatherDisplay:10.37,2013-02-11 07:52:00,
2013-02-11 02:57:00,30.8,14.3,30.18,ESE,123,1.9,3.5,50,0.00,OVC,,0.00,WeatherDisplay:10.37,2013-02-11 07:57:00,
2013-02-11 03:02:00,30.7,14.2,30.18,SE,144,2.4,6.9,50,0.00,OVC,,0.00,WeatherDisplay:10.37,2013-02-11 08:02:00,
2013-02-11 03:07:00,30.7,14.7,30.17,SE,146,1.6,9.2,51,0.00,OVC,,0.00,WeatherDisplay:10.37,2013-02-11 08:07:00,
2013-02-11 03:12:00,30.8,15.2,30.17,SE,129,0.9,3.5,52,0.00,OVC,,0.00,WeatherDisplay:10.37,2013-02-11 08:12:00,
2013-02-11 03:17:00,30.9,15.8,30.16,South,178,2.2,5.0,53,0.00,OVC,,0.00,WeatherDisplay:10.37,2013-02-11 08:17:00,
2013-02-11 03:22:00,31.0,15.8,30.16,ESE,123,2.0,3.5,53,0.00,OVC,,0.00,WeatherDisplay:10.37,2013-02-11 08:22:00,
2013-02-11 03:28:00,31.1,16.4,30.16,SSE,150,1.9,6.9,54,0.00,OVC,,0.00,WeatherDisplay:10.37,2013-02-11 08:28:00,
2013-02-11 03:33:00,31.2,17.3,30.15,SE,146,4.0,11.5,56,0.00,OVC,,0.00,WeatherDisplay:10.37,2013-02-11 08:33:00,
2013-02-11 03:38:00,31.3,17.4,30.15,South,176,6.6,18.4,56,0.00,OVC,,0.00,WeatherDisplay:10.37,2013-02-11 08:38:00,
2013-02-11 03:43:00,31.4,17.9,30.15,North,5,7.7,15.0,57,0.00,OVC,,0.00,WeatherDisplay:10.37,2013-02-11 08:43:00,
2013-02-11 03:48:00,31.7,19.0,30.14,South,184,4.4,11.5,59,0.00,OVC,,0.00,WeatherDisplay:10.37,2013-02-11 08:48:00,
2013-02-11 03:53:00,31.9,19.2,30.14,SE,143,2.2,6.0,59,0.00,OVC,,0.00,WeatherDisplay:10.37,2013-02-11 08:53:00,
2013-02-11 03:58:00,32.1,19.4,30.13,SSE,165,6.2,12.0,59,0.00,OVC,,0.00,WeatherDisplay:10.37,2013-02-11 08:58:00,
2013-02-11 04:03:00,32.2,19.1,30.13,SSE,167,4.3,10.4,58,0.00,OVC,,0.00,WeatherDisplay:10.37,2013-02-11 09:03:00,
2013-02-11 04:09:00,32.4,18.8,30.12,ESE,122,8.2,15.0,57,0.00,OVC,,0.00,WeatherDisplay:10.37,2013-02-11 09:09:00,
2013-02-11 04:14:00,32.5,18.9,30.12,SE,142,6.5,17.3,57,0.00,OVC,,0.00,WeatherDisplay:10.37,2013-02-11 09:14:00,
2013-02-11 04:19:00,32.6,18.6,30.13,East,89,9.0,18.4,56,0.00,OVC,,0.00,WeatherDisplay:10.37,2013-02-11 09:19:00,
2013-02-11 04:24:00,32.8,19.6,30.12,SE,138,1.8,4.6,58,0.00,OVC,,0.00,WeatherDisplay:10.37,2013-02-11 09:24:00,
2013-02-11 04:29:00,32.8,19.6,30.12,South,183,5.7,23.0,58,0.00,OVC,,0.00,WeatherDisplay:10.37,2013-02-11 09:29:00,
2013-02-11 04:35:00,32.7,19.5,30.11,ESE,111,13.5,26.5,58,0.00,OVC,,0.00,WeatherDisplay:10.37,2013-02-11 09:35:00,
2013-02-11 04:40:00,32.8,20.4,30.12,South,182,6.1,19.6,60,0.00,OVC,,0.00,WeatherDisplay:10.37,2013-02-11 09:40:00,
2013-02-11 04:45:00,32.7,20.3,30.12,SSE,152,8.0,23.0,60,0.00,OVC,,0.00,WeatherDisplay:10.37,2013-02-11 09:45:00,
2013-02-11 04:50:00,32.8,20.4,30.13,SSE,150,4.5,16.1,60,0.00,OVC,,0.00,WeatherDisplay:10.37,2013-02-11 09:50:00,
2013-02-11 04:56:00,32.8,21.6,30.13,SSE,167,4.2,16.1,63,0.00,OVC,,0.00,WeatherDisplay:10.37,2013-02-11 09:56:00,
2013-02-11 05:01:00,32.8,21.2,30.13,SW,215,5.0,11.5,62,0.00,OVC,,0.00,WeatherDisplay:10.37,2013-02-11 10:01:00,
2013-02-11 05:06:00,32.9,20.9,30.12,South,171,3.8,13.8,61,0.00,OVC,,0.00,WeatherDisplay:10.37,2013-02-11 10:06:00,
2013-02-11 05:11:00,32.8,21.6,30.12,SE,134,5.7,12.0,63,0.00,OVC,,0.00,WeatherDisplay:10.37,2013-02-11 10:11:00,
2013-02-11 05:16:00,32.9,20.5,30.12,SSE,158,7.5,15.0,60,0.00,OVC,,0.00,WeatherDisplay:10.37,2013-02-11 10:16:00,
2013-02-11 05:22:00,32.9,20.5,30.12,ESE,107,5.4,19.6,60,0.00,OVC,,0.00,WeatherDisplay:10.37,2013-02-11 10:22:00,
2013-02-11 05:27:00,33.0,20.2,30.11,SSW,205,8.2,19.6,59,0.00,OVC,,0.00,WeatherDisplay:10.37,2013-02-11 10:27:00,
2013-02-11 05:32:00,33.0,20.2,30.11,SE,129,7.8,13.8,59,0.00,OVC,,0.00,WeatherDisplay:10.37,2013-02-11 10:32:00,
2013-02-11 05:37:00,33.0,20.6,30.10,SSW,200,2.2,5.8,60,0.00,OVC,,0.00,WeatherDisplay:10.37,2013-02-11 10:37:00,
2013-02-11 05:43:00,32.9,19.7,30.09,ESE,117,7.5,15.0,58,0.00,OVC,,0.00,WeatherDisplay:10.37,2013-02-11 10:43:00,
2013-02-11 05:48:00,33.0,20.2,30.09,SE,131,4.9,10.0,59,0.00,OVC,,0.00,WeatherDisplay:10.37,2013-02-11 10:48:00,
2013-02-11 05:53:00,33.1,20.7,30.08,SE,146,3.4,10.4,60,0.00,OVC,,0.00,WeatherDisplay:10.37,2013-02-11 10:53:00,
2013-02-11 05:58:00,33.2,21.2,30.08,SSE,149,5.2,11.5,61,0.00,OVC,,0.00,WeatherDisplay:10.37,2013-02-11 10:58:00,
2013-02-11 06:03:00,33.2,22.3,30.08,South,178,4.4,20.0,64,0.00,OVC,,0.00,WeatherDisplay:10.37,2013-02-11 11:03:00,
2013-02-11 06:08:00,33.3,23.5,30.08,ESE,107,5.8,9.2,67,0.00,OVC,,0.00,WeatherDisplay:10.37,2013-02-11 11:08:00,
2013-02-11 06:13:00,33.4,24.0,30.07,SSE,163,6.7,15.0,68,0.00,OVC,,0.00,WeatherDisplay:10.37,2013-02-11 11:13:00,
2013-02-11 06:19:00,33.4,24.7,30.08,SSE,168,6.2,12.7,70,0.00,OVC,,0.00,WeatherDisplay:10.37,2013-02-11 11:19:00,
2013-02-11 06:24:00,33.5,25.4,30.07,ESE,108,4.0,23.0,72,0.00,OVC,,0.00,WeatherDisplay:10.37,2013-02-11 11:24:00,
2013-02-11 06:29:00,33.7,26.6,30.08,South,169,8.1,19.6,75,0.00,OVC,,0.00,WeatherDisplay:10.37,2013-02-11 11:29:00,
2013-02-11 06:34:00,33.9,27.4,30.07,SE,139,1.5,5.0,77,0.00,OVC,,0.00,WeatherDisplay:10.37,2013-02-11 11:34:00,
2013-02-11 06:39:00,34.0,27.9,30.07,SSE,162,7.9,11.5,78,0.00,OVC,,0.00,WeatherDisplay:10.37,2013-02-11 11:39:00,
2013-02-11 06:45:00,34.1,28.3,30.07,SE,124,6.4,11.5,79,0.00,OVC,,0.00,WeatherDisplay:10.37,2013-02-11 11:45:00,
2013-02-11 06:50:00,34.3,29.1,30.06,SE,131,5.9,16.1,81,0.00,OVC,,0.00,WeatherDisplay:10.37,2013-02-11 11:50:00,
2013-02-11 06:55:00,34.2,29.6,30.06,SW,229,5.2,19.0,83,0.00,OVC,,0.00,WeatherDisplay:10.37,2013-02-11 11:55:00,
2013-02-11 07:00:00,34.2,30.2,30.06,SSE,161,4.7,10.4,85,0.00,OVC,,0.00,WeatherDisplay:10.37,2013-02-11 12:00:00,
2013-02-11 07:05:00,34.3,30.3,30.06,South,175,2.8,11.5,85,0.00,OVC,,0.00,WeatherDisplay:10.37,2013-02-11 12:05:00,
2013-02-11 07:10:00,34.3,30.5,30.05,SE,142,5.2,15.0,86,0.00,OVC,,0.00,WeatherDisplay:10.37,2013-02-11 12:10:00,
2013-02-11 07:16:00,34.4,30.9,30.05,SSE,167,6.2,15.0,87,0.00,-PL,,0.00,WeatherDisplay:10.37,2013-02-11 12:16:00,
2013-02-11 07:21:00,34.4,31.5,30.05,South,175,4.9,16.1,89,0.00,-PL,,0.00,WeatherDisplay:10.37,2013-02-11 12:21:00,
2013-02-11 07:26:00,34.4,31.5,30.05,SSE,168,11.7,24.2,89,0.00,-PL,,0.00,WeatherDisplay:10.37,2013-02-11 12:26:00,
2013-02-11 07:31:00,34.4,31.8,30.05,SSE,160,7.1,13.8,90,0.00,-PL,,0.00,WeatherDisplay:10.37,2013-02-11 12:31:00,
2013-02-11 07:36:00,34.4,31.8,30.05,SSE,153,9.5,23.0,90,0.00,-PL,,0.00,WeatherDisplay:10.37,2013-02-11 12:36:00,
2013-02-11 07:41:00,34.4,32.0,30.04,SE,132,5.2,11.5,91,0.00,-PL,,0.00,WeatherDisplay:10.37,2013-02-11 12:41:00,
2013-02-11 07:47:00,34.3,31.9,30.04,West,259,6.0,11.5,91,0.00,-PL,,0.00,WeatherDisplay:10.37,2013-02-11 12:47:00,
2013-02-11 07:52:00,34.3,32.2,30.04,South,184,4.9,12.7,92,0.00,-PL,,0.00,WeatherDisplay:10.37,2013-02-11 12:52:00,
2013-02-11 07:57:00,34.2,32.1,30.03,ESE,109,2.9,10.4,92,0.00,-PL,,0.00,WeatherDisplay:10.37,2013-02-11 12:57:00,
2013-02-11 08:02:00,34.2,32.4,30.03,ESE,119,3.4,9.2,93,0.00,OVC,,0.00,WeatherDisplay:10.37,2013-02-11 13:02:00,
2013-02-11 08:07:00,34.0,32.2,30.02,SSE,158,3.4,6.9,93,0.00,OVC,,0.00,WeatherDisplay:10.37,2013-02-11 13:07:00,
2013-02-11 08:13:00,33.7,31.9,30.02,SSE,159,4.1,11.5,93,0.00,OVC,,0.00,WeatherDisplay:10.37,2013-02-11 13:13:00,
2013-02-11 08:18:00,33.6,31.8,30.02,SE,146,2.1,3.5,93,0.00,OVC,,0.00,WeatherDisplay:10.37,2013-02-11 13:18:00,
2013-02-11 08:23:00,33.7,31.9,30.02,SSE,162,2.7,4.6,93,0.00,OVC,,0.00,WeatherDisplay:10.37,2013-02-11 13:23:00,
2013-02-11 08:28:00,33.9,32.1,30.01,East,89,1.7,6.9,93,0.00,OVC,,0.00,WeatherDisplay:10.37,2013-02-11 13:28:00,
2013-02-11 08:33:00,34.0,32.2,30.01,South,186,2.8,5.8,93,0.00,OVC,,0.00,WeatherDisplay:10.37,2013-02-11 13:33:00,
2013-02-11 08:38:00,34.1,32.3,30.01,SSE,161,2.2,3.5,93,0.00,OVC,,0.00,WeatherDisplay:10.37,2013-02-11 13:38:00,
2013-02-11 08:43:00,34.1,32.3,30.01,SE,146,1.9,4.6,93,0.00,OVC,,0.00,WeatherDisplay:10.37,2013-02-11 13:43:00,
2013-02-11 08:49:00,34.2,32.7,30.01,SE,141,5.0,11.5,94,0.00,OVC,,0.00,WeatherDisplay:10.37,2013-02-11 13:49:00,
2013-02-11 08:54:00,34.4,32.9,30.01,South,175,2.0,9.2,94,0.00,OVC,,0.00,WeatherDisplay:10.37,2013-02-11 13:54:00,
2013-02-11 08:59:00,34.4,32.9,30.00,SSE,163,3.9,11.5,94,0.00,OVC,,0.00,WeatherDisplay:10.37,2013-02-11 13:59:00,
2013-02-11 09:04:00,34.7,33.2,29.99,SW,234,5.7,9.2,94,0.00,OVC,,0.00,WeatherDisplay:10.37,2013-02-11 14:04:00,
2013-02-11 09:10:00,35.1,33.5,29.99,SSE,157,4.2,11.5,94,0.00,OVC,,0.00,WeatherDisplay:10.37,2013-02-11 14:10:00,
2013-02-11 09:15:00,35.5,33.9,29.98,SE,126,5.9,11.0,94,0.00,OVC,,0.00,WeatherDisplay:10.37,2013-02-11 14:15:00,
2013-02-11 09:20:00,35.7,34.1,29.98,ESE,117,6.8,12.7,94,0.00,OVC,,0.00,WeatherDisplay:10.37,2013-02-11 14:20:00,
2013-02-11 09:25:00,35.9,34.3,29.99,South,174,4.2,11.5,94,0.00,OVC,,0.00,WeatherDisplay:10.37,2013-02-11 14:25:00,
2013-02-11 09:30:00,36.1,34.5,29.98,SSE,151,3.4,16.1,94,0.00,OVC,,0.00,WeatherDisplay:10.37,2013-02-11 14:30:00,
2013-02-11 09:36:00,36.1,34.3,29.98,SSE,157,7.3,11.5,93,0.00,OVC,,0.00,WeatherDisplay:10.37,2013-02-11 14:36:00,
2013-02-11 09:41:00,36.2,34.4,29.97,SSE,148,3.6,19.6,93,0.00,OVC,,0.00,WeatherDisplay:10.37,2013-02-11 14:41:00,
2013-02-11 09:46:00,36.4,34.6,29.96,East,93,5.9,17.3,93,0.00,OVC,,0.00,WeatherDisplay:10.37,2013-02-11 14:46:00,
2013-02-11 09:51:00,36.5,34.7,29.96,SE,144,6.3,12.7,93,0.00,OVC,,0.00,WeatherDisplay:10.37,2013-02-11 14:51:00,
2013-02-11 09:56:00,36.6,34.8,29.95,SE,140,2.9,9.2,93,0.00,OVC,,0.00,WeatherDisplay:10.37,2013-02-11 14:56:00,
2013-02-11 10:01:00,36.6,34.8,29.94,ESE,112,6.8,16.1,93,0.00,OVC,,0.00,WeatherDisplay:10.37,2013-02-11 15:01:00,
2013-02-11 10:06:00,36.6,34.8,29.93,SSE,148,3.4,10.4,93,0.00,OVC,,0.00,WeatherDisplay:10.37,2013-02-11 15:06:00,
2013-02-11 10:12:00,36.6,34.8,29.93,South,173,3.0,11.5,93,0.00,-RA,,0.00,WeatherDisplay:10.37,2013-02-11 15:12:00,
2013-02-11 10:17:00,36.7,34.9,29.93,SSE,153,1.6,12.7,93,0.00,-RA,,0.00,WeatherDisplay:10.37,2013-02-11 15:17:00,
2013-02-11 10:22:00,36.8,35.0,29.92,SE,141,5.0,12.7,93,0.00,-RA,,0.00,WeatherDisplay:10.37,2013-02-11 15:22:00,
2013-02-11 10:27:00,36.9,35.1,29.92,SW,228,4.6,10.4,93,0.00,-RA,,0.00,WeatherDisplay:10.37,2013-02-11 15:27:00,
2013-02-11 10:32:00,37.1,35.3,29.92,SSE,166,3.2,16.1,93,0.00,-RA,,0.00,WeatherDisplay:10.37,2013-02-11 15:32:00,
2013-02-11 10:38:00,37.2,35.6,29.91,ESE,119,7.7,11.5,94,0.00,-RA,,0.00,WeatherDisplay:10.37,2013-02-11 15:38:00,
2013-02-11 10:43:00,37.2,35.6,29.91,SE,143,4.1,12.7,94,0.00,-RA,,0.00,WeatherDisplay:10.37,2013-02-11 15:43:00,
2013-02-11 10:48:00,37.3,35.7,29.90,SSE,150,2.7,11.5,94,0.00,-RA,,0.00,WeatherDisplay:10.37,2013-02-11 15:48:00,
2013-02-11 10:53:00,37.3,35.7,29.90,South,170,3.3,6.9,94,0.00,-RA,,0.00,WeatherDisplay:10.37,2013-02-11 15:53:00,
2013-02-11 10:58:00,37.3,35.7,29.88,ESE,113,2.7,10.0,94,0.00,-RA,,0.00,WeatherDisplay:10.37,2013-02-11 15:58:00,
2013-02-11 11:03:00,37.4,35.8,29.88,ESE,117,5.8,19.6,94,0.00,-RA,,0.00,WeatherDisplay:10.37,2013-02-11 16:03:00,
2013-02-11 11:08:00,37.4,35.8,29.88,SE,126,5.5,21.9,94,0.00,-RA,,0.00,WeatherDisplay:10.37,2013-02-11 16:08:00,
2013-02-11 11:13:00,37.5,35.9,29.88,South,184,3.6,17.3,94,0.00,-RA,,0.00,WeatherDisplay:10.37,2013-02-11 16:13:00,
2013-02-11 11:19:00,37.5,35.9,29.87,South,184,4.8,11.5,94,0.00,-RA,,0.00,WeatherDisplay:10.37,2013-02-11 16:19:00,
2013-02-11 11:24:00,37.5,35.9,29.86,ESE,111,6.3,12.7,94,0.01,RA,,0.01,WeatherDisplay:10.37,2013-02-11 16:24:00,
2013-02-11 11:29:00,37.5,35.9,29.86,SSE,155,4.0,10.4,94,0.01,RA,,0.01,WeatherDisplay:10.37,2013-02-11 16:29:00,
2013-02-11 11:34:00,37.5,35.9,29.86,SSW,200,4.8,11.5,94,0.02,RA,,0.02,WeatherDisplay:10.37,2013-02-11 16:34:00,
2013-02-11 11:39:00,37.6,36.0,29.85,SSE,153,7.4,15.0,94,0.02,RA,,0.02,WeatherDisplay:10.37,2013-02-11 16:39:00,
2013-02-11 11:45:00,37.8,36.2,29.86,SSE,153,2.6,11.5,94,0.03,RA,,0.03,WeatherDisplay:10.37,2013-02-11 16:45:00,
2013-02-11 11:50:00,37.9,36.3,29.87,SSW,212,7.1,13.8,94,0.03,RA,,0.03,WeatherDisplay:10.37,2013-02-11 16:50:00,
2013-02-11 11:55:00,37.9,36.3,29.86,SSE,159,3.7,10.4,94,0.03,OVC,,0.03,WeatherDisplay:10.37,2013-02-11 16:55:00,
2013-02-11 12:00:00,38.0,36.4,29.85,ESE,107,4.0,15.0,94,0.04,RA,,0.04,WeatherDisplay:10.37,2013-02-11 17:00:00,
2013-02-11 12:05:00,38.2,36.6,29.84,SE,143,5.6,12.7,94,0.04,RA,,0.04,WeatherDisplay:10.37,2013-02-11 17:05:00,
2013-02-11 12:11:00,38.4,36.8,29.84,SE,137,6.8,11.0,94,0.05,RA,,0.05,WeatherDisplay:10.37,2013-02-11 17:11:00,
2013-02-11 12:16:00,38.6,36.8,29.83,ESE,107,8.3,17.3,93,0.05,RA,,0.05,WeatherDisplay:10.37,2013-02-11 17:16:00,
2013-02-11 12:21:00,38.7,36.9,29.83,SSE,159,2.7,5.8,93,0.06,RA,,0.06,WeatherDisplay:10.37,2013-02-11 17:21:00,
2013-02-11 12:27:00,38.9,37.0,29.83,ESE,117,4.2,6.9,93,0.05,RA,,0.06,WeatherDisplay:10.37,2013-02-11 17:27:00,
2013-02-11 12:32:00,39.0,37.1,29.82,SSE,150,1.4,10.4,93,0.06,RA,,0.07,WeatherDisplay:10.37,2013-02-11 17:32:00,
2013-02-11 12:37:00,39.1,37.2,29.82,SSE,165,4.3,11.5,93,0.05,RA,,0.07,WeatherDisplay:10.37,2013-02-11 17:37:00,
2013-02-11 12:42:00,39.3,37.4,29.81,SSE,149,2.9,13.8,93,0.05,OVC,,0.07,WeatherDisplay:10.37,2013-02-11 17:42:00,
2013-02-11 12:47:00,39.7,37.8,29.80,SSW,211,4.8,15.0,93,0.05,RA,,0.08,WeatherDisplay:10.37,2013-02-11 17:47:00,
2013-02-11 12:52:00,40.0,38.1,29.80,SE,136,3.4,3.5,93,0.05,RA,,0.08,WeatherDisplay:10.37,2013-02-11 17:52:00,
2013-02-11 12:58:00,40.4,38.3,29.80,East,97,5.4,12.7,92,0.04,OVC,,0.08,WeatherDisplay:10.37,2013-02-11 17:58:00,
2013-02-11 13:03:00,40.4,38.3,29.79,SE,132,4.3,10.4,92,0.05,RA,,0.09,WeatherDisplay:10.37,2013-02-11 18:03:00,
2013-02-11 13:08:00,40.2,38.1,29.79,SSW,199,4.1,17.3,92,0.04,RA,,0.09,WeatherDisplay:10.37,2013-02-11 18:08:00,
2013-02-11 13:13:00,40.2,38.1,29.78,SE,132,6.6,9.0,92,0.04,OVC,,0.09,WeatherDisplay:10.37,2013-02-11 18:13:00,
2013-02-11 13:18:00,40.2,38.1,29.79,East,98,7.2,15.0,92,0.04,OVC,,0.09,WeatherDisplay:10.37,2013-02-11 18:18:00,
2013-02-11 13:24:00,40.2,38.1,29.79,SW,217,3.7,11.5,92,0.03,OVC,,0.09,WeatherDisplay:10.37,2013-02-11 18:24:00,
2013-02-11 13:29:00,40.1,38.0,29.78,East,93,2.4,9.2,92,0.04,RA,,0.10,WeatherDisplay:10.37,2013-02-11 18:29:00,
2013-02-11 13:34:00,40.0,37.9,29.78,SSE,154,3.2,4.6,92,0.03,RA,,0.10,WeatherDisplay:10.37,2013-02-11 18:34:00,
2013-02-11 13:39:00,40.0,37.9,29.77,SE,144,3.0,12.7,92,0.03,OVC,,0.10,WeatherDisplay:10.37,2013-02-11 18:39:00,
2013-02-11 13:45:00,40.0,38.1,29.77,SE,135,5.4,12.7,93,0.03,OVC,,0.10,WeatherDisplay:10.37,2013-02-11 18:45:00,
2013-02-11 13:50:00,39.9,38.0,29.76,SSE,147,1.9,6.9,93,0.02,OVC,,0.10,WeatherDisplay:10.37,2013-02-11 18:50:00,
2013-02-11 13:55:00,39.9,38.0,29.76,East,92,1.7,6.9,93,0.02,OVC,,0.10,WeatherDisplay:10.37,2013-02-11 18:55:00,
2013-02-11 14:00:00,40.0,38.1,29.75,East,96,3.7,5.8,93,0.01,OVC,,0.10,WeatherDisplay:10.37,2013-02-11 19:00:00,
2013-02-11 14:05:00,40.1,38.2,29.74,SSE,150,6.4,11.5,93,0.01,OVC,,0.10,WeatherDisplay:10.37,2013-02-11 19:05:00,
2013-02-11 14:11:00,40.3,38.4,29.74,South,169,8.0,13.8,93,0.01,OVC,,0.10,WeatherDisplay:10.37,2013-02-11 19:11:00,
2013-02-11 14:16:00,40.6,38.7,29.74,East,96,3.2,5.8,93,0.02,RA,,0.11,WeatherDisplay:10.37,2013-02-11 19:16:00,
2013-02-11 14:21:00,40.9,39.0,29.73,SSE,166,4.0,10.4,93,0.02,RA,,0.11,WeatherDisplay:10.37,2013-02-11 19:21:00,
2013-02-11 14:26:00,41.2,39.3,29.73,SE,141,4.0,6.9,93,0.02,OVC,,0.11,WeatherDisplay:10.37,2013-02-11 19:26:00,
2013-02-11 14:31:00,41.6,39.4,29.72,NE,53,3.1,21.9,92,0.01,OVC,,0.11,WeatherDisplay:10.37,2013-02-11 19:31:00,
2013-02-11 14:36:00,42.1,39.9,29.72,SSE,155,4.0,11.5,92,0.01,OVC,,0.11,WeatherDisplay:10.37,2013-02-11 19:36:00,
2013-02-11 14:42:00,42.5,40.1,29.72,South,173,3.2,3.5,91,0.01,OVC,,0.11,WeatherDisplay:10.37,2013-02-11 19:42:00,
2013-02-11 14:47:00,42.9,40.2,29.71,SSE,148,4.2,10.4,90,0.01,OVC,,0.11,WeatherDisplay:10.37,2013-02-11 19:47:00,
2013-02-11 14:52:00,43.1,40.1,29.71,SE,132,7.8,17.3,89,0.01,OVC,,0.11,WeatherDisplay:10.37,2013-02-11 19:52:00,
2013-02-11 14:57:00,43.2,40.2,29.71,SSE,161,2.2,11.5,89,0.01,OVC,,0.11,WeatherDisplay:10.37,2013-02-11 19:57:00,
2013-02-11 15:03:00,43.3,40.0,29.71,SSE,150,5.7,11.5,88,0.01,OVC,,0.11,WeatherDisplay:10.37,2013-02-11 20:03:00,
2013-02-11 15:08:00,43.2,39.6,29.72,South,191,5.2,13.8,87,0.01,OVC,,0.11,WeatherDisplay:10.37,2013-02-11 20:08:00,
2013-02-11 15:13:00,42.7,39.4,29.71,SSW,203,1.1,3.5,88,0.02,RA,,0.12,WeatherDisplay:10.37,2013-02-11 20:13:00,
2013-02-11 15:18:00,42.4,39.1,29.71,ESE,111,7.9,18.4,88,0.01,RA,,0.12,WeatherDisplay:10.37,2013-02-11 20:18:00,
2013-02-11 15:23:00,42.3,39.3,29.72,SW,221,5.8,11.5,89,0.01,BKN,,0.12,WeatherDisplay:10.37,2013-02-11 20:23:00,
2013-02-11 15:28:00,42.1,39.1,29.73,SW,222,8.2,11.5,89,0.01,BKN,,0.12,WeatherDisplay:10.37,2013-02-11 20:28:00,
2013-02-11 15:33:00,42.1,39.1,29.73,South,190,4.0,13.8,89,0.01,BKN,,0.12,WeatherDisplay:10.37,2013-02-11 20:33:00,
2013-02-11 15:38:00,42.0,39.0,29.73,South,184,3.7,11.5,89,0.01,BKN,,0.12,WeatherDisplay:10.37,2013-02-11 20:38:00,
2013-02-11 15:43:00,42.0,39.0,29.72,SE,134,4.2,11.5,89,0.01,BKN,,0.12,WeatherDisplay:10.37,2013-02-11 20:43:00,
2013-02-11 15:48:00,41.9,38.9,29.71,SSW,200,3.5,4.6,89,0.01,BKN,,0.12,WeatherDisplay:10.37,2013-02-11 20:48:00,
2013-02-11 15:54:00,41.8,39.1,29.71,SSE,150,4.6,11.5,90,0.01,BKN,,0.12,WeatherDisplay:10.37,2013-02-11 20:54:00,
2013-02-11 15:59:00,41.6,38.9,29.71,ESE,115,1.8,5.8,90,0.01,BKN,,0.12,WeatherDisplay:10.37,2013-02-11 20:59:00,
2013-02-11 16:04:00,41.5,38.8,29.71,SSE,167,3.5,11.5,90,0.01,BKN,,0.12,WeatherDisplay:10.37,2013-02-11 21:04:00,
2013-02-11 16:09:00,41.5,38.8,29.71,SSW,198,2.1,6.9,90,0.01,BKN,,0.12,WeatherDisplay:10.37,2013-02-11 21:09:00,
2013-02-11 16:14:00,41.5,39.1,29.70,South,188,2.1,9.0,91,0.00,BKN,,0.12,WeatherDisplay:10.37,2013-02-11 21:14:00,
2013-02-11 16:19:00,41.4,39.0,29.70,South,181,3.8,9.2,91,0.00,BKN,,0.12,WeatherDisplay:10.37,2013-02-11 21:19:00,
2013-02-11 16:25:00,41.3,38.6,29.69,SE,130,2.9,5.8,90,0.00,BKN,,0.12,WeatherDisplay:10.37,2013-02-11 21:25:00,
2013-02-11 16:30:00,41.2,38.8,29.69,South,176,1.9,7.0,91,0.00,BKN,,0.12,WeatherDisplay:10.37,2013-02-11 21:30:00,
2013-02-11 16:35:00,41.1,38.7,29.68,SE,145,4.3,6.9,91,0.00,BKN,,0.12,WeatherDisplay:10.37,2013-02-11 21:35:00,
2013-02-11 16:41:00,40.9,38.5,29.68,SE,134,3.5,6.9,91,0.00,BKN,,0.12,WeatherDisplay:10.37,2013-02-11 21:41:00,
2013-02-11 16:46:00,40.9,38.5,29.68,SE,146,2.6,5.8,91,0.00,BKN,,0.12,WeatherDisplay:10.37,2013-02-11 21:46:00,
2013-02-11 16:51:00,40.7,38.6,29.68,South,176,5.1,11.5,92,0.00,BKN,,0.12,WeatherDisplay:10.37,2013-02-11 21:51:00,
2013-02-11 16:56:00,40.6,38.5,29.68,SE,143,3.0,10.4,92,0.00,BKN,,0.12,WeatherDisplay:10.37,2013-02-11 21:56:00,
2013-02-11 17:01:00,40.5,38.4,29.67,SE,137,3.7,10.4,92,0.00,BKN,,0.12,WeatherDisplay:10.37,2013-02-11 22:01:00,
2013-02-11 17:06:00,40.4,38.3,29.67,SSE,148,7.6,18.4,92,0.00,BKN,,0.12,WeatherDisplay:10.37,2013-02-11 22:06:00,
2013-02-11 17:11:00,40.3,38.2,29.67,ESE,121,4.0,7.0,92,0.00,BKN,,0.12,WeatherDisplay:10.37,2013-02-11 22:11:00,
2013-02-11 17:16:00,40.2,38.1,29.67,SSE,155,7.1,11.5,92,0.00,BKN,,0.12,WeatherDisplay:10.37,2013-02-11 22:16:00,
2013-02-11 17:22:00,40.2,38.3,29.67,SSE,167,5.1,6.9,93,0.00,BKN,,0.12,WeatherDisplay:10.37,2013-02-11 22:22:00,
2013-02-11 17:27:00,40.1,38.2,29.67,SE,143,3.8,11.5,93,0.00,BKN,,0.12,WeatherDisplay:10.37,2013-02-11 22:27:00,
2013-02-11 17:32:00,40.1,38.2,29.67,South,184,2.8,11.0,93,0.00,BKN,,0.12,WeatherDisplay:10.37,2013-02-11 22:32:00,
2013-02-11 17:37:00,40.1,38.2,29.67,SSW,195,4.8,7.0,93,0.00,BKN,,0.12,WeatherDisplay:10.37,2013-02-11 22:37:00,
2013-02-11 17:42:00,40.1,38.2,29.66,SSE,153,4.3,10.4,93,0.00,BKN,,0.12,WeatherDisplay:10.37,2013-02-11 22:42:00,
2013-02-11 17:47:00,40.1,38.5,29.66,ESE,118,2.5,6.9,94,0.00,BKN,,0.12,WeatherDisplay:10.37,2013-02-11 22:47:00,
2013-02-11 17:53:00,40.1,38.5,29.66,South,182,5.3,9.2,94,0.00,BKN,,0.12,WeatherDisplay:10.37,2013-02-11 22:53:00,
2013-02-11 17:58:00,40.0,38.4,29.66,SSW,194,4.8,9.2,94,0.00,BKN,,0.12,WeatherDisplay:10.37,2013-02-11 22:58:00,
2013-02-11 18:03:00,40.0,38.4,29.66,SSE,148,4.3,11.5,94,0.00,BKN,,0.12,WeatherDisplay:10.37,2013-02-11 23:03:00,
2013-02-11 18:08:00,40.0,38.4,29.66,SSE,157,4.7,5.8,94,0.00,BKN,,0.12,WeatherDisplay:10.37,2013-02-11 23:08:00,
2013-02-11 18:13:00,39.9,38.3,29.66,SSE,168,2.2,3.5,94,0.00,OVC,,0.12,WeatherDisplay:10.37,2013-02-11 23:13:00,
2013-02-11 18:19:00,39.8,38.2,29.66,South,175,0.1,3.5,94,0.00,OVC,,0.12,WeatherDisplay:10.37,2013-02-11 23:19:00,
2013-02-11 18:24:00,39.8,38.2,29.66,SSE,151,1.6,6.9,94,0.00,OVC,,0.12,WeatherDisplay:10.37,2013-02-11 23:24:00,
2013-02-11 18:29:00,39.8,38.2,29.66,SSW,198,2.2,11.5,94,0.00,OVC,,0.12,WeatherDisplay:10.37,2013-02-11 23:29:00,
2013-02-11 18:34:00,39.7,38.1,29.66,SW,221,1.1,3.5,94,0.00,OVC,,0.12,WeatherDisplay:10.37,2013-02-11 23:34:00,
2013-02-11 18:39:00,39.7,38.4,29.66,SW,217,0.3,4.6,95,0.00,OVC,,0.12,WeatherDisplay:10.37,2013-02-11 23:39:00,
2013-02-11 18:45:00,39.7,38.4,29.66,SSW,195,2.2,9.2,95,0.00,OVC,,0.12,WeatherDisplay:10.37,2013-02-11 23:45:00,
2013-02-11 18:50:00,39.8,38.5,29.66,SSE,153,2.5,5.8,95,0.00,OVC,,0.12,WeatherDisplay:10.37,2013-02-11 23:50:00,
2013-02-11 18:55:00,39.9,38.6,29.67,SW,224,2.0,3.5,95,0.00,OVC,,0.12,WeatherDisplay:10.37,2013-02-11 23:55:00,
2013-02-11 19:00:00,39.9,38.6,29.67,SW,216,2.2,5.8,95,0.00,OVC,,0.12,WeatherDisplay:10.37,2013-02-12 00:00:00,
2013-02-11 19:06:00,40.0,38.7,29.67,West,263,3.4,4.6,95,0.00,OVC,,0.12,WeatherDisplay:10.37,2013-02-12 00:06:00,
2013-02-11 19:11:00,39.9,38.6,29.67,SSE,162,3.0,5.0,95,0.00,OVC,,0.12,WeatherDisplay:10.37,2013-02-12 00:11:00,
2013-02-11 19:16:00,39.8,38.5,29.68,SSW,212,0.7,6.9,95,0.00,OVC,,0.12,WeatherDisplay:10.37,2013-02-12 00:16:00,
2013-02-11 19:21:00,39.8,38.5,29.68,SW,230,4.3,5.8,95,0.00,OVC,,0.12,WeatherDisplay:10.37,2013-02-12 00:21:00,
2013-02-11 19:26:00,39.7,38.4,29.68,SSE,163,2.0,3.5,95,0.00,OVC,,0.12,WeatherDisplay:10.37,2013-02-12 00:26:00,
2013-02-11 19:32:00,39.6,38.3,29.67,SSW,195,1.1,10.0,95,0.00,OVC,,0.12,WeatherDisplay:10.37,2013-02-12 00:32:00,
2013-02-11 19:37:00,39.4,38.1,29.67,SSE,147,1.8,5.0,95,0.00,OVC,,0.12,WeatherDisplay:10.37,2013-02-12 00:37:00,
2013-02-11 19:42:00,39.2,37.9,29.66,SE,132,1.9,5.0,95,0.00,OVC,,0.12,WeatherDisplay:10.37,2013-02-12 00:42:00,
2013-02-11 19:47:00,39.1,37.8,29.67,South,173,4.7,10.4,95,0.00,OVC,,0.12,WeatherDisplay:10.37,2013-02-12 00:47:00,
2013-02-11 19:52:00,39.1,37.8,29.67,South,179,0.6,9.2,95,0.00,OVC,,0.12,WeatherDisplay:10.37,2013-02-12 00:52:00,
2013-02-11 19:58:00,39.1,38.1,29.67,SSW,198,2.9,4.6,96,0.00,OVC,,0.12,WeatherDisplay:10.37,2013-02-12 00:58:00,
2013-02-11 20:03:00,39.1,38.1,29.67,SSE,152,2.7,3.5,96,0.00,OVC,,0.12,WeatherDisplay:10.37,2013-02-12 01:03:00,
2013-02-11 20:08:00,39.1,38.1,29.67,South,191,2.5,10.4,96,0.00,OVC,,0.12,WeatherDisplay:10.37,2013-02-12 01:08:00,
2013-02-11 20:13:00,39.0,38.0,29.67,SSE,164,0.6,3.5,96,0.00,OVC,,0.12,WeatherDisplay:10.37,2013-02-12 01:13:00,
2013-02-11 20:18:00,39.0,38.0,29.67,ESE,105,1.2,3.5,96,0.00,OVC,,0.12,WeatherDisplay:10.37,2013-02-12 01:18:00,
2013-02-11 20:23:00,39.0,38.0,29.67,SSE,148,2.1,4.6,96,0.00,OVC,,0.12,WeatherDisplay:10.37,2013-02-12 01:23:00,
2013-02-11 20:28:00,39.0,38.0,29.68,South,180,1.2,5.8,96,0.00,OVC,,0.12,WeatherDisplay:10.37,2013-02-12 01:28:00,
2013-02-11 20:34:00,39.0,38.0,29.68,SE,128,1.2,3.0,96,0.00,OVC,,0.12,WeatherDisplay:10.37,2013-02-12 01:34:00,
2013-02-11 20:39:00,39.0,38.0,29.68,South,175,1.3,4.6,96,0.00,OVC,,0.12,WeatherDisplay:10.37,2013-02-12 01:39:00,
2013-02-11 20:44:00,39.0,38.0,29.69,SW,236,1.1,3.5,96,0.00,OVC,,0.12,WeatherDisplay:10.37,2013-02-12 01:44:00,
2013-02-11 20:49:00,38.9,37.9,29.71,West,276,8.0,10.0,96,0.00,OVC,,0.12,WeatherDisplay:10.37,2013-02-12 01:49:00,
2013-02-11 20:54:00,38.9,37.9,29.72,West,263,12.6,15.0,96,0.01,RA,,0.13,WeatherDisplay:10.37,2013-02-12 01:54:00,
2013-02-11 20:59:00,38.4,37.4,29.71,WNW,300,8.4,13.8,96,0.02,RA,,0.14,WeatherDisplay:10.37,2013-02-12 01:59:00,
2013-02-11 21:05:00,38.0,37.0,29.71,NW,311,2.0,3.5,96,0.02,RA,,0.14,WeatherDisplay:10.37,2013-02-12 02:05:00,
2013-02-11 21:10:00,37.7,36.7,29.72,NNW,336,9.0,12.7,96,0.02,OVC,,0.14,WeatherDisplay:10.37,2013-02-12 02:10:00,
2013-02-11 21:15:00,37.6,36.6,29.72,WNW,288,5.4,9.2,96,0.02,-RA,,0.14,WeatherDisplay:10.37,2013-02-12 02:15:00,
2013-02-11 21:21:00,37.4,36.4,29.72,WSW,248,7.7,11.5,96,0.02,-RA,,0.14,WeatherDisplay:10.37,2013-02-12 02:21:00,
2013-02-11 21:26:00,37.2,36.2,29.72,NNW,340,5.5,10.4,96,0.02,-RA,,0.14,WeatherDisplay:10.37,2013-02-12 02:26:00,
2013-02-11 21:31:00,37.0,36.0,29.72,WNW,290,4.6,9.2,96,0.02,OVC,,0.14,WeatherDisplay:10.37,2013-02-12 02:31:00,
2013-02-11 21:36:00,36.8,35.8,29.73,NW,315,4.1,9.2,96,0.02,OVC,,0.14,WeatherDisplay:10.37,2013-02-12 02:36:00,
2013-02-11 21:41:00,36.7,35.7,29.73,West,277,3.8,11.5,96,0.02,OVC,,0.14,WeatherDisplay:10.37,2013-02-12 02:41:00,
2013-02-11 21:46:00,36.5,35.5,29.73,West,263,9.2,15.0,96,0.02,OVC,,0.14,WeatherDisplay:10.37,2013-02-12 02:46:00,
2013-02-11 21:52:00,36.4,35.4,29.73,WNW,290,9.9,17.3,96,0.01,OVC,,0.14,WeatherDisplay:10.37,2013-02-12 02:52:00,
2013-02-11 21:57:00,36.3,35.3,29.73,WNW,298,3.9,8.1,96,0.01,OVC,,0.14,WeatherDisplay:10.37,2013-02-12 02:57:00,
2013-02-11 22:02:00,36.1,35.1,29.73,NNW,332,5.9,10.4,96,0.00,OVC,,0.14,WeatherDisplay:10.37,2013-02-12 03:02:00,
2013-02-11 22:07:00,36.1,35.1,29.73,NW,321,5.1,16.1,96,0.00,OVC,,0.14,WeatherDisplay:10.37,2013-02-12 03:07:00,
2013-02-11 22:12:00,35.9,34.9,29.73,NW,306,2.5,6.0,96,0.00,OVC,,0.14,WeatherDisplay:10.37,2013-02-12 03:12:00,
2013-02-11 22:18:00,35.9,34.9,29.72,NNE,17,2.5,10.4,96,0.00,OVC,,0.14,WeatherDisplay:10.37,2013-02-12 03:18:00,
2013-02-11 22:23:00,35.8,34.8,29.72,NW,313,1.4,2.3,96,0.00,OVC,,0.14,WeatherDisplay:10.37,2013-02-12 03:23:00,
2013-02-11 22:28:00,35.8,34.8,29.72,NW,305,1.0,3.5,96,0.00,OVC,,0.14,WeatherDisplay:10.37,2013-02-12 03:28:00,
2013-02-11 22:33:00,35.7,34.7,29.72,WNW,294,1.5,7.0,96,0.00,OVC,,0.14,WeatherDisplay:10.37,2013-02-12 03:33:00,
2013-02-11 22:39:00,35.5,34.5,29.72,NW,309,6.4,12.7,96,0.00,OVC,,0.14,WeatherDisplay:10.37,2013-02-12 03:39:00,
2013-02-11 22:44:00,35.3,34.3,29.71,NNW,331,3.9,10.4,96,0.00,OVC,,0.14,WeatherDisplay:10.37,2013-02-12 03:44:00,
2013-02-11 22:49:00,35.2,33.9,29.70,NW,321,2.5,9.2,95,0.00,OVC,,0.14,WeatherDisplay:10.37,2013-02-12 03:49:00,
2013-02-11 22:54:00,35.0,33.7,29.71,NW,315,6.2,12.7,95,0.00,OVC,,0.14,WeatherDisplay:10.37,2013-02-12 03:54:00,
2013-02-11 22:59:00,34.9,33.6,29.71,NW,312,7.7,16.1,95,0.00,OVC,,0.14,WeatherDisplay:10.37,2013-02-12 03:59:00,
2013-02-11 23:04:00,34.7,33.4,29.70,WNW,299,5.6,8.1,95,0.00,OVC,,0.14,WeatherDisplay:10.37,2013-02-12 04:04:00,
2013-02-11 23:09:00,34.6,33.3,29.70,NW,313,2.4,4.6,95,0.00,OVC,,0.14,WeatherDisplay:10.37,2013-02-12 04:09:00,
2013-02-11 23:15:00,34.7,33.4,29.70,NW,313,3.1,5.8,95,0.00,OVC,,0.14,WeatherDisplay:10.37,2013-02-12 04:15:00,
2013-02-11 23:20:00,34.7,33.4,29.70,WNW,296,3.4,4.6,95,0.00,OVC,,0.14,WeatherDisplay:10.37,2013-02-12 04:20:00,
2013-02-11 23:25:00,34.8,33.2,29.70,NNW,347,2.4,3.5,94,0.00,OVC,,0.14,WeatherDisplay:10.37,2013-02-12 04:25:00,
2013-02-11 23:30:00,34.8,33.2,29.70,WNW,302,2.0,3.5,94,0.00,OVC,,0.14,WeatherDisplay:10.37,2013-02-12 04:30:00,
2013-02-11 23:35:00,34.7,33.2,29.70,WNW,283,2.1,3.5,94,0.00,OVC,,0.14,WeatherDisplay:10.37,2013-02-12 04:35:00,
2013-02-11 23:40:00,34.8,33.2,29.70,WNW,288,2.4,5.8,94,0.00,OVC,,0.14,WeatherDisplay:10.37,2013-02-12 04:40:00,
2013-02-11 23:45:00,34.8,33.2,29.70,NW,306,2.1,3.5,94,0.00,OVC,,0.14,WeatherDisplay:10.37,2013-02-12 04:45:00,
2013-02-11 23:51:00,34.8,33.2,29.71,NW,323,0.6,1.2,94,0.00,OVC,,0.14,WeatherDisplay:10.37,2013-02-12 04:51:00,
2013-02-11 23:56:00,34.8,33.2,29.71,NW,319,0.2,2.3,94,0.00,OVC,,0.14,WeatherDisplay:10.37,2013-02-12 04:56:00,